Regional Weather Roundup
Issued by NWS

Home | Current Version | Previous Version | Graphics & Text | Print | Product List | Glossary Off
Versions: 1 2 3 4 5 6 7 8 9 10 11 12 13 14 15 16 17 18 19 20 21 22 23 24 25 26 27 28 29 30 31 32 33 34 35 36 37 38 39 40 41 42 43 44 45 46 47 48 49 50

000
ASUS43 KDMX 261704
RWRIA

WEATHER ROUNDUP FOR IOWA
NATIONAL WEATHER SERVICE DES MOINES IA
  ISSUED BY NWS QUAD CITIES IA IL
1200 PM CDT THU MAR 26 2015

NOTE: "FAIR" INDICATES FEW OR NO CLOUDS BELOW 12,000 FEET WITH NO
SIGNIFICANT WEATHER AND/OR OBSTRUCTIONS TO VISIBILITY.

* - THESE STATIONS ARE NOT NWS STATIONS...THUS NOT UNDER NWS
QUALITY CONTROL.  THEY ALSO DO NOT REPORT WEATHER SUCH
AS PRECIPITATION OR FOG.

IAZ001>003-012>014-020>022-031>034-043>046-261800-
   NORTHWEST IOWA

CITY           SKY/WX    TMP DP  RH WIND       PRES   REMARKS
CARROLL *      MOSUNNY   43  25  49 NW21      30.17F WCI  34
CHEROKEE *     MOSUNNY   41  23  49 NW12G21   30.16F WCI  34
DENNISON *     MOSUNNY   41  25  52 N10G23    30.16F WCI  35
LE MARS *      MOSUNNY   39  23  52 NW9G16    30.18F WCI  33
ORANGE CITY *  PTSUNNY   39  23  52 NW10      30.17F WCI  32
SHELDON *      PTSUNNY   37  25  60 N13       30.15F WCI  29
SIOUX CITY     MOSUNNY   42  22  44 N10       30.20F WCI  36
SPENCER        CLOUDY    38  24  57 N17       30.16F WCI  28
STORM LAKE *   MOSUNNY   41  23  48 NW17G24   30.16F WCI  32
$$

IAZ055>058-069>071-079>083-090>094-261800-
   SOUTHWEST IOWA

CITY           SKY/WX    TMP DP  RH WIND       PRES   REMARKS
ATLANTIC *     MOSUNNY   43  25  49 NW16      30.19S WCI  35
AUDUBON *      SUNNY     41  23  48 NW10G18   30.18S WCI  35
CLARINDA *     SUNNY     43  27  52 NW15      30.22F WCI  35
COUNCIL BLFS * SUNNY     43  25  49 NW10      30.20F WCI  37
CRESTON *      MOSUNNY   41  25  52 NW13G23   30.16F WCI  34
HARLAN *       MOSUNNY   41  25  52 NW14G22   30.22F WCI  33
LAMONI         SUNNY     45  24  43 N18       30.15F WCI  37
RED OAK *      SUNNY     43  25  49 N14       30.20F WCI  36
SHENANDOAH *   SUNNY     43  25  49 NW10G18   30.21F WCI  37
$$

IAZ047>049-059>061-072>074-084-261800-
   CENTRAL IOWA

CITY           SKY/WX    TMP DP  RH WIND       PRES   REMARKS
AMES           PTSUNNY   41  23  48 NW15G26   30.14F WCI  33
ANKENY *       MOSUNNY   41  23  48 NW20G25   30.14F WCI  32
BOONE *        FAIR      41  23  48 N15G22    30.13F WCI  33
CHARITON *     SUNNY     43  23  45 NW16G25   30.14F WCI  35
DES MOINES     MOSUNNY   44  21  40 N18G25    30.15F WCI  36
GRINNELL *     SUNNY     41  23  49 NW23G29   30.12F WCI  31
KNOXVILLE *    SUNNY     43  23  45 NW18G26   30.12F WCI  34
MARSHALLTOWN   MOSUNNY   41  24  51 NW20G28   30.11F WCI  32
NEWTON *       MOSUNNY   41  27  56 N20G26    30.13F WCI  32
PELLA *        SUNNY     43  27  54 NW22G28   30.14F WCI  33
PERRY *        FAIR      42  25  52 NW13G26   30.16F WCI  35
$$

IAZ004>006-015-016-023>025-035-036-261800-
   NORTH CENTRAL IOWA

CITY           SKY/WX    TMP DP  RH WIND       PRES   REMARKS
ALGONA *       PTSUNNY   36  25  64 NW16G23   30.16S WCI  26
CLARION *      PTSUNNY   36  27  69 NW20G28   30.13F WCI  25
ESTHERVILLE    PTSUNNY   35  24  64 NW18      30.15S WCI  24
FORT DODGE *   CLOUDY    39  23  52 NW12      30.16S WCI  32
MASON CITY     SUNNY     36  22  56 NW21G29   30.12F WCI  25
FOREST CITY *  FAIR      34  21  60 NW17G28   30.12F WCI  23
WEBSTER CITY * PTSUNNY   39  25  56 NW22      30.13S WCI  29
IOWA FALLS *   PTSUNNY   37  26  63 NW22G28   30.12F WCI  27
$$

IAZ007>011-017>019-026>030-037>042-050>054-066-261800-
   NORTHEAST IOWA

CITY           SKY/WX    TMP DP  RH WIND       PRES   REMARKS
CEDAR RAPIDS   SUNNY     41  21  44 NW22G32   30.07F WCI  31
CHARLES CITY * MOSUNNY   32  25  74 N20       30.10F WCI  20
CLINTON *      MOSUNNY   39  25  56 NW12G21   30.07F WCI  32
DECORAH *      CLOUDY    32  19  59 NW14G21   30.06S WCI  22
DUBUQUE        MOSUNNY   37  22  54 NW14      30.04S WCI  28
MONTICELLO *   SUNNY     39  23  52 N20       30.06F WCI  30
OELWEIN *      SUNNY     36  23  60 NW21G26   30.08F WCI  24
WATERLOO       SUNNY     41  19  41 NW20G28   30.08F WCI  32
$$

IAZ064-065-067-068-078-261800-
   EAST CENTRAL IOWA

CITY           SKY/WX    TMP DP  RH WIND       PRES   REMARKS
DAVENPORT      MOSUNNY   41  25  53 NW15G24   30.05F WCI  33
IOWA CITY      SUNNY     42  19  39 NW24G31   30.10F WCI  32
MUSCATINE *    SUNNY     45  21  39 NW16G26   30.08F WCI  37
QUAD CITIES    SUNNY     41  24  51 NW15G25   30.05F WCI  33
$$

IAZ062-063-075>077-085>089-095>099-261800-
   SOUTHEAST IOWA

CITY           SKY/WX    TMP DP  RH WIND       PRES   REMARKS
BURLINGTON     SUNNY     43  23  45 NW16G28   30.08F WCI  35
FAIRFIELD *    SUNNY     43  23  45 NW17G25   30.10F WCI  35
FORT MADISON * SUNNY     43  27  52 NW16G23   30.09F WCI  35
KEOKUK *       SUNNY     43  23  45 NW16G24   30.09F WCI  35
OSKALOOSA *    FAIR      42  25  50 NW23G30   30.12F WCI  32
CENTERVILLE *  FAIR      43  23  45 NW14      30.14F WCI  36
OTTUMWA        SUNNY     44  23  43 N23       30.11F WCI  35
WASHINGTON *   SUNNY     43  25  49 NW18G28   30.09F WCI  34
$$

ABBREVIATIONS USED IN REMARKS
   TC - TEMPERATURES IN CELSIUS
  WCI - WIND CHILL INDEX
   HX - HEAT INDEX
  VSB - VISIBILITY
$$



USA.gov is the U.S. government's official web portal to all federal, state and local government web resources and services.